Theta_e
354 354 353 353 353 352 351 351 350 351 351 350 350 349 349 350 350 350 350 350 351 350 351 350 350 350 349 349 349 349 349 349 349 349 349 350 351 352 356 358 358 353 351 349 352 354 353 354 352 353 351 353 354 354 355 355 356 356 356 356 355 355 355 355 355 355 355 355 354 354 354 354 354 354 354 354 354 353 353 352 352 353 353 352 352
355 354 353 352 351 350 350 350 350 350 350 349 350 350 349 349 349 349 348 349 349 350 352 350 349 348 348 347 348 348 349 349 349 349 350 350 350 351 355 357 358 358 352 351 352 352 352 350 351 350 353 354 354 355 354 355 356 356 356 356 356 356 355 355 355 355 355 354 354 354 354 354 354 354 355 355 354 354 354 353 353 353 353 353 353
355 354 352 352 350 349 348 348 348 348 350 349 350 349 349 349 348 348 349 348 348 350 350 349 349 349 349 349 349 349 349 349 349 350 349 350 350 351 351 354 357 359 356 354 354 355 350 350 351 353 355 355 355 355 357 355 355 356 356 357 357 357 356 356 355 355 354 354 354 354 354 354 354 354 355 355 355 355 355 355 354 354 354 353 353
356 354 353 351 349 348 348 347 347 348 350 350 349 350 350 350 348 348 348 347 345 346 349 348 348 349 349 349 349 349 349 349 348 349 350 350 351 351 351 352 354 357 359 358 357 357 355 354 354 354 356 356 354 356 356 356 355 353 355 357 357 357 356 356 356 356 355 354 354 354 354 355 355 355 355 355 355 355 355 355 355 354 354 354 354
355 355 355 351 349 347 347 349 349 350 351 351 348 347 346 348 349 351 348 346 345 347 348 348 348 348 348 348 348 347 348 349 349 349 349 350 351 351 351 352 353 354 357 360 359 358 357 354 354 354 355 357 356 355 356 356 355 355 355 356 357 357 357 356 355 356 356 355 355 355 355 355 355 355 355 355 355 355 355 355 355 355 355 354 354
355 354 353 351 348 347 347 347 350 352 348 347 346 344 344 350 350 349 349 348 347 348 349 348 349 348 347 348 348 348 349 348 348 348 349 349 351 351 351 352 353 354 355 356 359 359 357 356 356 354 354 355 356 356 357 355 354 355 355 354 355 357 357 356 356 357 354 355 356 355 355 355 355 355 355 355 355 355 355 356 355 355 355 355 355
355 355 352 352 349 346 345 347 351 351 349 348 347 349 351 350 350 348 348 347 348 350 349 348 347 347 348 348 348 348 348 347 348 349 350 350 351 350 351 354 355 353 355 356 357 359 359 359 358 358 353 349 352 353 353 353 353 353 354 355 353 352 356 357 356 354 356 354 355 356 356 355 355 356 356 356 355 356 356 356 356 355 355 355 355
354 354 353 351 349 346 347 350 352 352 351 350 350 349 348 348 349 349 348 348 349 348 348 346 347 347 348 348 348 349 349 349 349 349 350 351 351 350 351 352 353 353 355 357 357 357 358 358 355 356 355 352 352 353 353 353 354 353 353 353 354 355 354 353 356 356 356 356 356 355 354 356 356 356 356 356 356 356 356 356 356 356 356 356 356
353 353 352 350 347 345 347 350 350 350 347 349 349 351 350 350 350 351 350 348 347 346 346 347 347 347 347 347 348 349 348 349 349 349 350 350 350 350 350 350 350 353 356 356 356 357 357 356 354 353 352 350 350 352 352 352 353 353 353 353 353 356 355 353 350 357 357 357 357 356 355 354 355 356 357 356 356 356 356 356 356 356 356 356 356
351 351 350 350 348 347 348 348 349 350 350 349 349 350 350 349 347 348 349 347 346 345 344 346 347 346 346 345 346 347 347 348 349 352 351 349 349 349 350 350 350 350 352 353 354 355 355 355 353 353 352 352 352 352 354 354 352 350 349 349 352 353 352 352 351 350 355 357 357 357 356 355 354 354 356 357 357 356 356 356 356 356 356 356 356
351 350 349 349 349 348 348 348 350 351 349 348 347 347 347 346 345 345 346 347 346 346 345 345 345 344 343 343 344 345 347 347 350 348 348 348 349 350 349 349 349 349 350 350 351 352 353 355 354 355 355 354 355 356 355 354 352 352 349 350 352 354 355 355 355 354 354 355 357 357 357 357 356 355 354 356 357 357 357 357 356 356 357 356 356
349 348 348 348 347 347 346 349 351 349 349 346 344 342 343 343 343 345 345 345 345 344 344 343 343 342 341 342 343 344 344 345 346 347 348 349 349 350 349 350 350 349 349 350 351 351 352 352 353 354 355 355 356 356 356 353 352 351 352 354 354 355 354 355 354 354 354 355 355 357 357 357 357 356 355 355 356 357 357 357 357 357 357 357 357
349 347 345 349 347 346 348 351 351 350 348 344 343 342 343 345 344 346 345 343 341 340 341 343 340 338 339 339 339 341 342 344 344 344 342 346 348 349 350 350 350 350 351 352 351 350 349 350 351 352 352 354 354 354 353 353 354 354 354 354 354 354 355 355 355 355 355 354 354 355 357 357 357 357 356 356 355 356 357 356 356 356 356 357 357
351 347 348 346 348 349 351 351 351 347 345 344 344 346 344 345 345 344 342 341 339 340 341 341 337 334 332 333 335 336 339 339 341 337 339 342 344 347 348 347 347 348 351 352 350 349 349 350 351 350 351 352 352 353 354 355 355 355 356 356 356 357 357 357 356 356 356 356 355 354 354 355 357 358 357 356 356 356 356 356 356 356 356 357 356
351 350 348 348 349 350 350 349 345 343 342 337 337 341 340 342 341 342 340 339 340 342 342 340 336 337 336 332 326 328 332 335 335 337 338 340 341 342 342 341 342 344 347 346 345 346 346 348 349 350 350 350 351 351 353 354 355 356 356 356 356 356 357 357 356 355 356 356 355 354 353 353 354 356 358 357 356 356 357 356 356 356 356 357 357
349 351 351 350 350 349 349 344 342 340 340 342 336 340 340 341 341 340 340 335 336 338 343 341 340 337 328 327 329 326 321 327 329 334 337 338 339 339 341 339 341 342 342 341 342 344 345 347 347 348 349 349 350 350 351 352 354 355 357 355 354 355 356 357 357 356 355 355 354 354 354 353 352 354 356 357 357 357 357 356 356 356 356 356 356
349 351 353 351 350 348 345 344 340 339 340 335 336 338 339 340 340 340 339 338 335 337 340 341 337 339 336 330 327 323 322 326 329 331 334 335 337 336 338 338 338 340 340 341 343 344 345 345 346 347 347 348 348 349 350 350 351 353 353 355 355 354 354 356 356 355 354 355 354 352 353 355 353 352 354 356 356 357 357 357 356 356 356 356 356
349 350 351 348 345 344 342 342 341 341 343 339 339 337 338 340 341 341 339 340 340 336 335 338 338 338 339 338 333 327 326 330 329 324 334 334 337 337 337 337 338 337 339 340 341 341 343 341 343 345 346 346 347 348 348 348 349 349 351 351 353 353 353 354 355 356 355 354 352 353 352 352 353 354 354 355 355 356 356 356 356 356 356 356 356
344 343 344 346 341 341 341 341 342 341 347 339 338 338 339 338 342 340 339 341 339 335 334 333 334 337 338 339 339 339 337 331 325 327 323 330 334 333 333 335 335 336 337 338 339 339 339 340 340 341 342 344 345 347 348 348 348 349 351 353 353 352 353 353 354 355 354 354 352 354 353 351 351 353 354 353 354 355 355 355 356 356 356 356 356
340 338 338 343 341 340 341 340 340 341 347 340 339 339 338 340 346 343 341 341 338 337 335 332 333 335 338 336 338 338 338 336 335 330 326 322 326 330 332 332 333 333 334 336 336 335 336 339 338 340 342 343 344 345 346 347 347 347 348 348 350 350 351 351 352 353 354 353 353 353 353 353 354 353 354 354 355 355 354 355 355 355 356 356 357
337 337 338 338 347 341 341 340 340 340 347 341 340 339 337 335 340 341 339 340 338 338 335 334 334 333 333 333 334 333 332 333 333 333 328 322 322 324 326 331 331 331 332 333 334 335 336 336 338 340 341 341 342 342 343 344 345 346 347 348 349 351 351 351 351 352 352 353 353 353 354 354 355 355 355 355 355 355 354 354 357 356 355 356 357
337 338 339 339 346 343 341 341 340 340 346 340 337 337 337 337 337 337 334 338 338 340 338 334 334 334 334 334 331 331 330 330 330 331 330 329 322 322 325 325 323 328 332 331 333 334 334 336 336 336 337 337 339 340 341 340 340 339 339 339 340 342 344 346 347 350 351 351 352 353 354 354 355 355 355 355 356 355 355 354 354 357 357 357 356
336 337 337 340 342 344 341 340 340 346 347 340 339 339 340 340 340 338 336 336 336 338 339 337 335 334 333 334 332 330 328 326 327 328 327 325 324 324 325 324 323 324 330 332 333 333 334 335 335 336 337 336 339 339 337 335 334 334 336 337 337 337 337 338 339 342 346 349 351 352 353 353 353 354 355 356 356 356 357 356 355 356 357 356 355
335 336 338 338 343 342 342 340 341 341 342 339 340 341 340 339 339 338 336 334 333 337 335 334 334 333 333 333 333 331 330 329 328 330 330 328 326 324 322 324 324 325 328 329 332 333 331 332 334 334 334 335 337 338 335 332 332 334 334 335 336 335 335 335 335 336 338 342 346 348 351 352 353 354 354 355 356 356 356 356 356 356 356 355 355
335 336 337 338 340 338 338 336 338 340 339 337 339 340 340 339 338 336 335 335 335 336 335 335 334 333 334 331 332 330 331 331 330 330 334 333 329 324 324 325 320 323 326 327 329 330 330 333 335 333 333 334 335 335 333 331 331 332 335 334 335 334 333 333 333 334 335 336 339 344 348 349 350 352 353 354 355 355 355 356 356 355 355 354 353
334 335 337 337 340 338 340 338 337 336 340 338 339 340 340 340 339 338 336 337 336 336 336 336 333 333 333 334 332 332 332 332 331 331 330 330 328 325 323 324 324 322 324 326 327 325 328 331 331 333 333 332 335 332 331 329 330 332 334 334 333 332 332 332 332 333 334 334 335 337 340 344 347 349 351 352 354 354 354 355 356 356 356 355 353
334 337 337 337 338 337 338 337 337 337 339 342 344 341 342 341 341 339 339 337 336 337 336 335 335 334 333 334 335 333 334 333 332 331 331 330 329 327 325 320 320 320 321 323 324 323 322 328 330 332 332 334 331 330 330 331 331 332 334 332 332 331 331 331 332 332 333 333 334 335 337 339 343 347 349 350 351 353 354 354 354 354 354 354 354
333 337 336 337 336 336 339 340 337 337 338 339 339 341 340 339 339 339 339 340 337 336 337 335 335 335 335 335 333 335 335 334 333 333 332 332 332 330 328 325 318 315 317 319 319 321 322 324 329 331 331 331 331 330 330 330 329 331 334 331 331 331 330 330 330 331 332 333 334 334 335 337 340 343 345 347 348 349 351 352 353 352 352 351 352
333 337 336 337 336 336 336 337 338 337 336 337 339 339 339 339 339 337 337 337 339 337 336 336 337 336 335 335 335 336 336 335 334 333 333 332 332 331 330 328 323 318 315 314 316 317 322 322 320 328 330 330 329 330 329 329 329 331 331 331 330 330 329 329 330 331 332 332 332 332 333 335 337 339 342 344 345 346 348 349 349 349 350 349 350
335 336 336 336 336 341 336 336 337 336 336 336 337 337 337 337 337 337 337 337 336 337 337 337 336 336 336 336 335 335 337 335 334 335 333 332 331 330 330 329 327 323 320 316 315 319 321 324 322 324 329 329 328 329 329 329 330 330 330 330 329 328 328 330 331 331 331 331 330 330 332 333 334 336 337 338 340 342 344 346 347 347 348 348 349
337 336 336 335 335 336 337 336 335 336 335 335 336 336 336 336 336 337 337 336 335 335 336 337 337 336 336 336 335 334 335 334 334 333 334 332 331 330 329 327 326 326 322 319 314 319 322 322 324 325 325 327 327 328 328 329 329 329 330 329 329 329 330 330 329 329 330 330 330 330 330 330 331 333 334 335 337 340 342 343 344 345 347 347 348
335 335 336 336 335 335 335 336 335 335 334 335 335 336 335 335 336 336 336 336 335 335 336 336 336 337 336 335 335 335 335 334 333 333 333 333 333 331 329 327 325 326 324 320 318 316 323 322 324 325 327 327 328 327 328 328 328 329 329 329 329 330 328 329 329 329 329 329 329 329 328 329 330 332 334 335 337 339 341 341 341 341 343 345 346
334 334 334 335 335 336 335 336 336 335 334 334 334 335 334 335 335 335 335 335 334 335 335 335 335 335 336 335 335 335 334 332 333 332 331 332 332 329 328 326 325 325 323 320 319 319 322 324 324 325 327 328 326 328 327 327 327 328 328 328 328 327 328 328 329 330 330 329 328 328 328 329 330 331 332 334 336 338 340 341 340 339 341 341 342
333 333 333 334 335 334 334 334 334 334 334 334 333 334 334 334 334 334 334 334 333 334 334 334 335 334 335 334 334 333 332 331 331 330 331 330 328 326 325 325 324 323 325 322 322 320 318 324 323 326 326 328 325 329 326 325 326 327 326 327 327 328 328 328 329 329 330 329 328 327 328 328 329 330 331 333 334 335 336 337 337 337 338 338 337
333 333 333 333 334 334 333 334 333 333 333 333 333 333 333 333 333 334 335 335 334 334 333 333 333 333 331 332 332 332 331 330 330 330 330 330 329 327 326 326 325 325 325 324 323 319 319 320 324 324 326 327 326 326 328 327 327 326 325 325 325 326 328 329 328 329 330 329 328 328 328 328 329 329 330 332 332 332 333 333 333 334 334 334 334
332 333 334 333 333 333 332 333 332 332 332 332 333 333 333 333 333 333 334 334 334 334 334 334 333 332 332 331 331 331 330 330 330 329 329 329 328 328 327 327 326 325 326 325 324 322 321 319 323 324 326 325 327 329 328 327 325 324 324 325 326 326 327 328 329 329 329 328 328 327 327 327 328 328 328 328 328 328 328 328 329 330 330 330 331
332 333 334 334 332 331 331 332 332 332 332 333 332 333 333 334 334 333 334 334 333 333 334 334 334 334 332 331 332 331 330 329 329 328 329 328 328 327 327 327 326 326 325 325 324 323 321 320 322 325 326 326 328 327 327 324 323 324 325 324 324 325 326 327 328 329 329 328 328 328 328 328 328 328 328 329 329 328 328 327 327 328 328 328 329
333 332 332 332 333 332 332 332 332 332 332 332 332 333 333 334 334 334 334 334 334 333 333 333 333 333 332 332 331 330 329 328 329 329 329 328 328 327 327 327 326 326 325 325 324 323 322 320 321 320 324 324 325 325 326 325 321 320 321 324 325 326 326 325 326 327 328 328 328 329 328 329 329 328 328 328 329 328 328 327 326 325 325 325 323
332 332 332 332 334 334 333 333 333 332 333 333 332 333 333 333 333 333 333 333 333 333 333 333 332 331 330 330 330 330 329 329 328 329 329 328 328 328 328 327 327 325 325 324 324 323 322 321 321 323 323 326 325 321 323 324 323 321 319 320 320 324 326 325 324 326 327 327 328 329 329 329 329 329 327 326 327 328 329 328 326 324 323 322 321
332 332 332 332 332 333 333 332 332 333 332 331 331 332 333 333 333 333 333 333 333 333 333 333 332 331 331 330 330 330 330 330 329 329 329 328 329 327 327 326 326 325 324 324 324 322 321 321 321 321 323 323 324 324 324 323 320 321 323 321 317 319 322 325 325 323 325 326 326 327 328 329 329 329 327 328 329 329 328 329 330 329 326 323 321
334 333 333 332 330 329 330 330 330 331 331 331 331 331 331 331 332 333 333 333 333 333 332 332 331 330 330 330 330 330 331 331 326 324 325 324 328 327 327 327 326 325 325 324 323 322 322 321 321 323 322 321 322 322 320 319 318 318 321 321 319 321 322 321 324 326 326 325 326 326 327 330 329 330 330 331 333 335 337 334 334 334 331 325 323
331 332 331 330 328 328 328 328 328 329 330 330 331 329 330 332 331 332 332 332 332 332 332 332 331 331 330 330 331 330 328 327 326 323 319 318 318 325 329 329 328 326 325 324 323 323 322 321 321 321 320 320 320 321 320 320 321 321 320 321 318 320 321 320 322 324 326 325 324 324 326 327 325 326 328 327 329 332 335 339 341 339 334 328 326
329 330 331 329 328 328 328 328 328 328 328 329 328 325 326 328 331 331 331 332 332 332 331 331 331 332 331 331 330 330 330 329 331 327 323 320 320 317 316 317 320 328 325 323 323 323 321 322 322 322 321 320 321 322 321 320 320 319 320 321 320 319 317 315 313 319 327 326 323 321 321 326 326 323 325 326 327 329 330 336 336 336 331 329 327
330 330 329 329 328 328 328 328 328 329 328 329 323 323 325 326 329 333 332 332 332 331 331 331 331 331 331 330 330 329 330 330 330 331 328 325 321 319 318 317 316 316 318 325 325 324 323 322 321 322 322 321 321 322 321 320 320 320 321 321 320 318 317 315 315 314 322 326 322 320 319 323 325 323 323 326 328 329 330 329 331 333 331 329 328
330 329 329 329 328 328 328 328 327 328 329 327 323 323 323 324 325 329 333 333 331 331 331 331 331 331 331 330 330 329 329 329 330 332 331 331 323 319 317 317 316 316 316 316 317 324 326 323 321 321 322 322 320 321 323 321 322 320 320 319 320 320 318 317 316 317 320 325 321 318 316 321 323 322 322 325 327 329 329 329 330 332 331 330 328
329 329 329 329 329 329 329 329 329 329 329 327 322 321 321 321 323 326 330 331 331 331 331 331 331 331 330 330 329 329 330 329 330 330 329 329 328 328 327 326 327 325 319 316 315 314 317 321 322 321 323 324 321 322 324 324 321 319 319 318 320 319 318 317 320 319 321 324 320 318 316 318 322 323 321 324 327 329 330 328 327 328 330 329 328
329 328 328 328 329 330 329 330 329 329 330 324 320 320 318 318 320 324 329 329 330 330 331 331 331 331 331 329 329 329 329 329 329 328 329 328 327 327 326 326 326 326 326 326 326 326 325 324 323 322 323 323 323 323 323 323 322 322 322 320 320 320 320 321 320 321 322 325 324 321 313 318 322 321 321 324 326 327 329 326 326 327 328 327 328
330 330 330 329 329 329 330 330 329 330 331 323 320 319 317 317 320 326 328 327 328 328 329 330 330 330 330 329 328 328 328 328 323 318 322 327 325 324 323 324 324 323 324 321 319 320 323 323 323 323 323 323 317 322 322 321 321 321 321 321 321 319 317 315 314 317 318 322 324 320 317 317 321 319 320 324 326 325 328 329 326 326 326 327 327
329 328 329 329 330 330 330 330 329 330 331 325 318 316 316 317 319 326 327 327 327 327 327 328 329 328 328 328 328 327 327 327 322 318 319 318 322 320 320 320 321 320 321 322 317 315 314 312 311 312 312 312 313 313 312 312 317 318 319 316 316 317 315 312 313 315 315 319 321 321 318 315 319 319 319 322 324 324 326 328 331 327 326 325 325
328 329 329 329 330 330 330 330 330 330 330 326 317 314 313 315 321 326 326 326 326 325 326 327 327 326 327 327 328 326 326 328 319 315 315 317 318 318 319 319 319 319 320 321 322 322 316 314 314 314 315 315 314 313 313 313 313 313 318 314 317 317 314 314 312 313 315 317 319 322 317 315 318 320 319 321 323 325 326 328 330 330 328 325 324
331 331 331 330 330 330 330 330 332 332 330 326 318 314 313 313 319 326 326 326 325 324 324 324 324 322 320 326 329 329 327 324 314 312 312 314 318 319 319 318 317 318 320 321 320 319 319 318 319 319 319 317 321 321 322 316 316 317 322 320 319 317 315 314 314 314 312 314 319 323 316 315 316 317 319 317 317 323 328 329 331 331 334 339 340
Wind_Speed
4 5 4 4 4 3 3 3 3 3 3 3 2 4 4 3 3 3 3 4 3 4 3 3 2 2 3 4 4 4 4 4 4 4 3 3 3 4 8 9 8 7 13 10 9 9 8 9 11 15 14 19 18 18 17 17 16 16 16 16 16 16 15 16 16 15 14 14 14 14 13 13 13 12 12 12 11 11 11 10 9 9 8 8 8
5 4 4 5 4 3 3 3 3 3 2 4 2 3 4 3 2 2 2 2 3 3 4 4 3 3 3 4 4 4 4 4 4 4 4 3 3 3 7 8 9 9 11 11 10 9 7 9 13 16 20 19 17 17 19 18 17 17 17 16 17 16 16 16 16 16 15 15 14 14 14 13 13 13 13 12 12 12 11 11 10 10 9 9 9
5 4 4 4 3 3 3 2 3 3 2 3 3 4 4 4 5 5 4 3 3 3 3 4 4 3 4 4 5 4 4 4 4 4 4 3 3 3 4 7 9 10 12 13 12 13 10 16 17 18 21 20 19 19 18 18 18 18 17 17 17 16 17 16 16 16 16 15 15 14 14 14 14 13 13 13 13 12 12 12 11 11 10 10 10
5 5 5 4 3 3 3 3 4 3 2 3 4 5 4 3 4 6 4 2 3 4 3 4 5 4 3 4 4 4 4 4 4 4 4 3 3 3 3 4 7 9 11 14 15 15 17 20 19 19 19 18 19 20 19 17 17 17 17 18 17 17 17 17 17 17 16 16 15 15 14 14 14 14 14 14 14 13 13 13 12 12 11 11 10
5 5 5 3 3 2 3 4 3 2 2 3 3 3 5 4 6 4 3 3 4 5 4 4 5 3 3 4 4 5 4 4 4 4 4 4 3 3 3 3 4 7 10 12 15 16 16 17 17 17 18 17 18 18 19 18 16 17 20 19 18 18 17 17 18 17 17 16 16 16 15 15 15 14 14 14 14 14 14 13 13 12 12 11 11
5 4 3 3 4 3 3 4 3 2 4 4 5 2 6 6 4 3 4 3 4 5 5 6 5 4 4 4 3 4 3 4 4 4 4 4 3 3 3 3 3 3 4 8 11 14 16 16 18 16 16 16 16 16 16 14 16 17 18 19 18 19 18 18 17 17 16 17 17 16 16 16 16 15 15 15 14 15 14 14 14 13 13 12 11
5 4 4 4 2 1 2 3 4 3 2 3 5 5 5 5 3 3 3 3 4 4 5 5 6 7 5 4 4 4 3 4 4 5 4 4 3 3 3 3 3 5 4 4 6 10 13 14 14 12 8 9 14 14 14 14 15 15 18 19 16 18 18 19 18 17 16 15 17 17 17 17 16 16 16 16 15 15 15 15 14 14 13 12 12
5 5 4 4 4 3 2 3 4 2 3 4 4 4 4 3 3 3 3 4 4 5 4 4 5 6 7 6 5 4 4 4 4 4 4 3 3 3 3 3 3 4 5 4 5 6 8 11 11 10 11 13 15 18 17 16 17 16 18 19 18 19 16 17 18 17 17 17 17 16 17 17 17 17 17 16 16 15 15 15 15 14 14 13 12
5 4 4 4 4 3 3 6 5 4 3 4 4 4 2 2 2 3 3 4 4 6 5 4 5 6 6 6 6 5 5 5 4 4 4 4 4 3 3 3 3 4 3 3 4 5 6 7 8 11 14 15 16 16 16 16 16 17 17 18 19 17 16 15 16 18 18 18 18 17 16 18 18 18 18 17 17 15 15 15 15 15 14 14 13
4 4 5 4 4 3 3 4 4 4 5 4 3 1 1 1 3 2 3 3 3 4 5 4 5 5 6 6 7 5 5 5 5 5 5 6 4 4 3 2 2 2 2 3 2 3 4 4 5 12 15 15 15 15 16 17 16 15 15 17 19 18 15 17 18 18 19 19 19 18 17 17 17 18 17 17 17 17 16 15 15 15 15 14 13
4 5 5 4 3 3 3 4 4 3 2 2 2 1 1 2 2 2 1 2 4 4 5 5 5 6 5 7 7 6 4 3 3 4 4 5 4 4 2 3 2 2 2 2 2 3 4 4 4 4 7 15 15 16 17 15 13 14 18 23 24 23 21 22 21 20 19 18 19 19 19 17 16 18 19 18 17 16 16 16 16 16 16 15 14
5 4 4 4 4 3 3 1 1 1 1 2 2 1 2 4 3 2 3 2 3 4 3 4 4 5 6 5 5 5 4 2 1 2 2 3 3 3 3 2 2 3 2 2 2 2 3 4 4 4 5 8 13 15 15 14 15 17 18 22 23 21 21 20 20 19 18 18 18 20 20 20 18 18 18 18 17 16 16 16 16 16 17 16 15
4 4 4 4 3 2 1 1 1 1 1 2 2 2 2 2 2 2 3 3 3 2 3 2 4 4 2 4 5 4 3 2 1 2 3 2 2 2 2 2 2 2 2 2 2 2 2 3 3 4 5 5 6 10 12 13 15 17 19 21 20 19 22 21 21 20 20 18 18 18 19 19 19 18 18 18 18 17 16 15 16 16 17 17 16
5 4 3 3 2 0 1 1 1 1 1 2 2 2 3 2 1 1 2 2 2 2 4 2 2 4 5 6 3 4 2 2 2 5 3 3 3 3 3 3 4 4 3 2 2 2 2 2 3 5 5 6 6 6 6 7 8 12 16 18 19 20 20 20 21 19 19 20 21 20 17 17 18 18 18 18 18 17 16 16 16 16 17 17 17
5 5 4 3 2 2 2 2 2 1 0 2 2 2 1 1 1 1 1 1 2 2 4 2 2 3 3 2 3 5 4 4 2 5 3 4 3 4 4 5 5 5 4 4 3 4 3 3 3 4 5 6 6 6 6 7 8 12 14 15 17 19 21 21 21 21 21 20 20 21 20 18 17 19 19 18 18 17 17 16 16 16 17 17 17
4 4 3 3 3 4 3 2 2 1 1 1 2 2 1 0 1 1 2 2 3 2 3 3 1 4 3 2 3 2 3 2 6 5 2 2 4 3 3 3 3 5 4 4 4 3 4 3 4 3 4 4 5 6 6 6 9 13 15 15 14 15 19 21 21 20 21 22 23 20 20 21 19 16 19 20 19 18 17 17 17 17 17 17 18
4 4 4 5 5 4 3 4 3 1 1 1 2 2 1 1 1 2 2 1 2 1 2 3 4 2 0 1 2 2 1 3 7 3 3 4 3 3 4 3 4 5 4 4 3 3 3 4 3 3 3 3 4 4 6 6 6 7 8 11 14 14 14 17 19 19 20 22 22 22 20 17 19 20 18 19 20 20 19 18 18 18 18 18 18
4 5 5 4 5 4 4 4 3 2 2 3 2 1 1 2 2 2 2 2 1 2 2 2 2 2 1 1 2 1 3 4 3 3 4 2 2 2 3 3 4 5 3 3 4 4 4 4 4 4 4 4 3 4 5 6 7 7 7 7 12 13 14 15 15 16 20 20 21 21 21 20 18 21 20 20 21 20 20 19 19 19 19 19 19
5 5 5 4 4 4 5 4 4 3 3 2 2 3 2 1 2 2 2 2 2 1 2 2 2 2 2 2 2 1 2 2 2 4 6 4 3 3 4 4 6 4 3 3 4 5 5 4 5 4 4 4 4 4 4 5 7 8 11 13 14 14 15 15 14 15 17 18 19 19 19 20 23 21 19 19 20 22 20 20 20 19 19 19 20
5 5 4 4 4 4 4 4 4 2 3 3 3 2 0 0 1 1 1 2 3 2 2 1 1 1 2 2 1 1 3 2 1 1 3 6 6 4 2 4 6 2 2 4 5 6 6 5 5 5 4 4 4 4 4 5 6 6 7 11 13 14 15 14 15 15 16 17 17 19 21 22 21 23 21 23 23 23 23 22 21 20 20 20 19
3 4 4 4 4 5 5 4 4 3 3 2 2 2 2 2 2 2 2 3 3 3 2 2 2 1 0 2 2 2 3 2 3 2 2 3 5 3 6 4 2 1 4 3 4 4 4 4 4 4 4 5 4 5 5 5 5 6 7 12 14 15 15 15 15 16 16 17 17 18 21 22 23 23 23 24 22 22 24 24 22 20 22 21 22
3 3 4 3 5 5 5 5 5 4 3 3 2 2 2 2 3 3 2 2 3 3 3 3 3 2 2 2 1 1 1 1 1 2 2 3 5 7 7 7 7 4 3 5 7 5 3 3 4 4 4 4 5 5 5 6 6 7 9 16 15 16 15 14 15 16 16 16 18 18 18 21 22 22 23 24 25 23 23 24 24 24 22 21 23
3 3 4 4 4 5 5 5 4 4 3 3 4 3 3 3 3 3 3 3 2 3 3 3 3 3 3 3 3 3 2 2 2 3 3 3 3 5 5 4 5 7 3 5 6 5 4 3 2 3 4 4 3 3 5 6 9 10 15 14 15 15 16 16 16 16 14 14 17 19 19 19 19 21 22 23 24 23 22 23 25 26 24 23 22
3 4 4 4 5 5 4 4 4 4 4 4 3 3 2 2 2 3 3 2 2 2 2 2 3 2 3 3 4 4 3 4 4 3 3 3 3 5 7 6 4 3 4 7 4 2 5 3 2 2 3 3 2 3 4 6 7 14 13 14 14 15 16 16 16 16 16 15 14 16 18 19 20 20 20 22 22 23 22 22 23 24 25 26 23
4 5 4 5 4 5 4 4 3 3 4 3 4 4 3 3 3 3 2 3 3 3 2 3 3 3 3 3 3 3 4 4 3 3 2 3 3 4 5 3 4 6 2 1 3 4 3 3 2 2 2 2 2 2 4 5 6 11 16 11 15 14 15 16 16 15 16 16 16 17 18 19 17 17 18 19 20 21 22 24 24 24 24 25 23
6 6 6 6 5 5 5 5 5 4 4 4 4 4 4 4 4 4 4 3 2 3 3 3 2 3 2 2 3 4 3 3 4 3 4 3 4 5 4 3 4 6 3 2 1 3 3 2 3 3 2 2 1 2 4 6 6 11 16 13 11 13 15 15 16 16 16 16 16 18 19 19 19 18 18 19 20 20 19 22 23 23 23 22 25
6 6 5 6 6 5 5 5 5 5 4 4 3 3 3 3 3 3 3 2 2 2 3 3 3 3 3 3 3 2 3 3 4 4 5 5 5 4 4 5 3 2 2 2 3 3 6 3 3 3 3 2 2 4 5 5 8 14 15 10 8 13 14 14 15 17 17 18 17 18 19 19 19 19 18 19 18 20 21 21 23 24 23 22 23
6 5 6 6 6 5 4 5 4 4 3 3 3 3 3 3 3 2 4 1 2 3 3 3 4 4 4 2 2 4 3 3 4 5 5 6 5 5 5 4 5 4 2 3 2 3 1 2 3 3 3 1 2 4 8 10 6 12 13 8 7 8 13 14 15 17 18 18 18 17 18 19 19 18 18 18 18 18 19 19 20 20 21 21 21
6 5 5 5 5 5 5 5 4 4 4 3 3 3 3 3 3 4 4 3 2 4 3 4 4 3 3 4 4 3 3 2 3 5 5 5 6 6 6 6 6 2 3 2 2 3 2 2 3 3 1 1 4 5 6 6 9 11 8 8 8 8 10 15 16 16 17 18 18 18 18 19 19 18 18 18 18 18 19 20 20 20 21 21 21
6 5 5 5 5 5 5 5 5 4 5 4 4 4 3 3 4 4 4 3 3 3 3 4 4 3 3 3 3 3 3 3 4 4 5 6 6 7 7 6 6 5 4 4 5 3 4 2 4 4 2 4 4 5 5 7 11 12 8 8 8 9 14 16 16 16 16 17 18 18 18 18 18 18 18 18 17 17 18 19 20 20 21 22 22
5 5 5 5 5 5 5 5 5 5 5 5 4 4 4 4 4 4 4 3 4 5 4 3 4 3 4 5 3 4 4 4 4 4 4 5 6 6 6 5 7 7 5 4 4 3 4 4 4 5 5 5 6 6 5 5 8 11 9 8 8 12 18 13 15 16 16 16 17 17 17 17 18 18 18 18 18 17 18 19 20 20 21 22 22
6 6 6 6 6 6 5 5 5 5 5 5 4 4 4 4 4 4 4 4 4 5 5 4 3 4 4 5 5 5 4 3 3 4 4 5 5 5 4 5 6 7 6 5 6 10 4 5 6 7 8 6 5 7 7 6 6 11 8 8 9 14 10 8 12 15 16 16 16 17 17 17 18 19 19 19 18 18 18 18 19 20 21 21 22
6 6 7 7 7 7 7 6 7 7 6 6 5 4 4 5 4 5 4 4 5 5 4 5 4 4 4 5 6 6 4 4 4 3 3 4 4 4 4 3 4 5 7 7 6 9 6 5 7 6 6 7 6 4 7 7 7 6 8 9 9 8 8 8 9 13 16 16 16 16 17 18 18 19 19 19 19 19 19 19 19 19 20 21 21
6 7 7 7 6 7 7 7 7 7 7 7 6 5 5 6 5 4 5 5 5 6 4 6 5 4 4 6 6 6 4 5 4 4 4 3 4 5 5 5 6 5 5 5 6 6 13 3 5 5 6 4 8 7 6 8 8 9 10 9 8 8 8 8 8 9 14 16 17 17 17 18 18 18 19 20 20 19 19 19 19 19 20 20 21
6 7 7 7 7 7 7 7 7 7 7 7 6 6 6 7 7 6 6 6 6 6 6 6 6 5 5 6 7 5 3 4 4 4 4 4 4 5 6 5 6 6 5 7 5 9 12 12 6 5 4 4 6 9 8 6 7 7 9 9 9 9 8 8 9 8 13 15 17 18 18 18 18 18 19 20 20 20 19 19 19 19 19 20 20
8 7 6 7 6 6 7 7 7 7 7 7 6 6 7 7 7 7 6 6 6 6 6 6 6 5 6 6 7 5 4 4 5 4 4 4 4 4 5 5 6 7 6 4 6 7 10 11 8 5 5 7 7 7 7 7 8 7 7 8 8 9 9 9 9 8 10 15 17 18 18 18 18 18 18 19 20 20 19 19 18 18 18 19 20
8 6 6 6 6 6 7 8 8 8 8 7 7 6 6 7 7 7 7 6 6 6 6 6 5 6 6 6 7 5 4 4 4 4 3 5 4 4 5 5 5 5 5 5 6 6 7 10 9 5 5 7 6 8 8 8 9 8 7 7 8 9 9 9 9 8 12 14 16 16 17 18 18 18 18 19 19 20 20 19 19 18 19 19 19
7 7 7 6 7 8 8 8 8 8 8 7 7 7 7 6 6 6 6 6 6 6 6 6 6 6 6 6 6 5 4 5 5 4 4 5 4 5 5 5 5 5 5 5 5 5 8 11 11 11 7 7 7 11 7 6 10 12 10 7 7 7 8 8 8 8 8 8 9 10 12 14 16 17 18 18 19 19 20 19 19 19 19 19 19
8 8 7 8 7 7 8 8 8 9 8 7 7 7 7 6 7 7 6 6 6 5 6 6 6 6 6 6 6 5 6 5 5 5 5 5 4 6 6 5 5 5 5 5 4 6 9 10 10 10 9 7 6 13 10 8 10 10 10 9 8 6 6 7 9 8 8 10 12 15 15 15 18 16 17 20 21 21 20 20 19 19 19 19 19
8 9 10 9 7 7 8 8 8 7 7 6 6 6 6 6 6 6 6 6 6 6 6 6 6 6 6 6 6 6 7 6 6 6 5 5 4 5 4 4 4 5 5 5 5 7 7 9 9 9 9 10 7 6 10 10 10 7 5 5 11 12 9 7 8 10 9 9 10 10 10 11 12 14 16 16 18 19 21 20 21 20 20 19 19
7 8 6 7 7 7 7 7 7 6 6 6 6 6 6 6 6 6 7 6 6 7 6 6 6 6 6 6 7 7 7 8 10 8 7 6 4 5 5 4 4 4 6 7 8 7 7 8 9 9 10 11 9 7 11 11 10 9 8 8 12 11 8 9 9 7 8 9 9 9 9 8 10 11 11 12 11 15 16 18 16 21 21 19 19
7 6 7 7 7 7 7 7 6 6 6 5 7 10 8 6 6 6 5 6 6 6 6 6 6 6 7 7 7 10 11 11 10 11 11 11 11 8 7 4 5 6 8 8 8 8 7 8 9 10 10 12 12 11 11 13 12 10 9 9 12 12 11 12 9 7 7 8 9 9 9 9 11 13 12 13 12 12 12 12 11 11 14 18 20
7 7 6 7 7 6 7 7 7 6 6 6 9 10 10 11 7 6 7 7 6 6 6 6 7 7 6 7 6 7 9 9 9 11 11 11 11 11 12 11 9 8 8 9 9 8 8 8 10 10 11 12 11 9 12 13 11 10 10 10 12 12 12 13 14 10 4 5 8 11 12 10 9 12 12 13 13 12 12 12 15 15 17 18 19
7 6 7 7 7 7 7 7 7 7 7 8 11 11 11 12 11 8 7 6 6 6 6 7 7 7 7 6 5 4 5 6 6 6 7 9 9 10 10 11 11 12 13 11 10 9 9 8 9 11 12 12 13 11 14 11 11 9 10 11 12 13 13 13 13 14 9 8 10 12 16 10 9 12 12 12 12 12 13 15 17 17 17 18 19
4 7 9 7 8 7 7 8 8 8 7 9 12 13 13 14 14 11 6 7 7 7 8 8 8 8 6 5 5 5 5 8 7 5 5 5 7 9 9 9 9 11 12 14 14 13 9 9 10 12 13 13 12 12 13 12 9 11 12 12 13 12 12 13 14 16 14 10 12 16 17 12 10 13 13 12 12 12 13 15 19 20 19 19 19
7 8 8 9 8 8 8 8 8 8 8 10 14 14 14 14 13 10 6 7 7 8 9 8 7 7 7 6 5 5 4 5 4 5 5 5 5 4 5 6 6 8 9 12 13 13 12 9 10 12 13 12 12 13 15 12 12 12 12 13 13 14 14 15 16 18 17 11 13 14 16 13 11 12 15 14 12 12 12 15 19 19 19 19 19
8 10 9 9 8 9 9 9 8 9 8 13 14 15 14 13 13 9 6 6 6 7 7 9 8 8 7 5 6 6 6 5 5 6 5 5 5 6 7 8 6 6 6 6 7 6 6 7 9 11 13 12 12 12 13 13 13 11 11 14 15 15 14 14 15 14 13 10 11 8 15 12 11 14 15 13 13 13 12 14 18 20 20 19 19
7 7 7 7 9 10 10 9 9 10 9 12 13 13 13 12 11 5 6 7 7 7 8 8 7 6 5 5 5 6 7 6 7 9 6 4 6 7 8 8 7 7 8 7 7 6 6 7 8 10 11 13 12 11 12 12 11 11 13 12 12 12 13 13 15 13 12 9 9 11 12 12 11 15 17 13 13 14 12 12 15 18 19 20 20
8 8 9 9 7 8 9 8 9 10 9 10 12 14 13 13 7 5 6 6 6 8 9 9 7 4 3 3 4 5 6 7 7 6 4 4 5 7 7 7 7 7 8 4 5 8 9 10 12 13 14 15 16 17 17 19 15 12 10 11 13 11 12 14 13 12 13 11 10 10 12 14 11 13 16 13 12 14 13 12 11 15 18 20 20
9 10 8 8 8 8 9 7 8 9 10 10 12 12 12 10 7 6 5 5 7 7 8 7 2 1 4 1 6 6 6 6 5 4 5 5 6 7 7 8 8 8 6 2 3 4 6 9 11 12 14 15 16 17 18 17 16 11 8 12 13 11 12 13 14 15 15 13 13 11 12 13 12 12 15 13 13 12 13 12 12 13 15 16 21
9 8 7 8 8 8 9 10 11 11 9 10 9 10 10 9 7 5 5 5 6 7 7 1 7 5 2 8 11 9 8 7 5 5 6 7 7 7 7 6 7 6 5 3 6 7 7 7 7 8 10 10 10 10 10 11 12 13 11 12 11 10 11 13 15 14 15 12 9 6 10 12 13 13 13 13 12 10 10 10 11 11 11 10 11
Wind_Direction
234 241 246 250 259 270 286 285 294 286 307 289 274 294 291 283 307 322 332 323 320 308 296 288 266 253 249 265 264 267 265 263 266 261 253 247 245 255 260 262 262 186 216 235 251 249 246 250 239 245 245 241 248 240 222 217 215 216 215 213 215 218 217 216 216 218 219 219 220 219 220 222 221 218 216 212 211 213 215 219 222 223 224 234 233
226 228 222 242 242 247 247 254 260 259 259 273 274 265 280 306 301 307 288 301 316 314 317 303 277 252 245 259 259 261 267 268 266 262 265 261 251 250 255 258 255 226 216 230 224 234 236 253 242 232 239 233 242 248 241 225 219 218 218 217 214 216 219 219 219 220 220 221 222 223 222 224 224 224 222 219 217 216 217 218 221 223 227 228 234
225 224 221 232 250 264 262 272 278 275 281 291 325 316 321 333 357 321 312 319 312 310 292 281 273 263 253 257 264 264 259 261 269 262 259 260 255 252 253 253 249 243 217 219 222 214 213 233 231 234 236 231 223 234 242 243 232 220 221 222 220 217 218 220 220 220 221 223 224 224 225 225 226 228 227 227 224 220 220 221 220 222 224 228 232
229 231 225 212 233 254 278 274 267 294 342 352 348 328 329 333 274 270 262 287 298 288 278 268 273 272 261 253 263 268 271 260 261 271 268 256 252 249 248 243 248 244 238 217 221 220 203 229 230 232 238 236 229 229 233 234 242 245 231 224 224 224 220 221 222 221 221 221 224 225 225 225 228 229 231 231 231 228 224 224 223 222 223 226 230
229 232 238 216 206 240 263 258 289 348 355 354 331 350 301 264 258 249 250 264 278 289 288 274 276 264 253 262 262 265 270 278 266 258 264 267 255 247 250 246 239 247 243 241 235 231 217 221 231 231 235 231 230 235 234 234 233 237 243 232 228 228 224 225 225 224 222 222 222 225 227 226 226 229 232 234 235 234 230 227 226 226 225 225 228
220 227 217 203 201 221 301 327 354 355 32 319 289 291 256 251 257 240 245 242 254 275 292 302 300 293 280 263 253 260 269 276 276 271 266 267 268 257 251 243 238 233 244 248 249 240 233 227 219 218 240 245 242 244 245 247 243 245 247 251 242 230 231 228 226 229 231 224 222 224 226 229 229 228 230 233 235 237 237 232 230 230 229 227 227
221 219 217 208 168 75 295 318 296 279 279 242 241 238 255 256 253 241 261 276 265 273 295 292 300 301 294 285 268 271 266 266 272 281 277 269 267 262 259 251 245 251 243 250 248 255 246 240 237 221 224 277 282 270 262 257 255 244 256 250 247 264 243 230 232 229 230 233 235 225 224 227 230 231 229 230 233 236 239 238 235 234 233 231 229
217 206 219 201 185 197 211 239 243 245 252 270 252 247 240 245 242 236 287 307 307 304 294 281 288 296 304 299 284 278 274 267 268 265 270 283 275 273 258 249 250 261 255 253 257 260 262 256 252 254 255 239 238 247 249 246 246 247 252 255 247 239 252 253 236 231 229 230 232 239 234 228 227 230 231 231 231 232 235 239 240 238 237 236 232
210 201 202 197 204 214 223 232 240 244 262 247 241 246 240 261 287 259 244 271 290 302 306 301 299 300 301 298 298 294 285 284 275 280 285 274 278 275 271 257 245 254 257 253 263 272 266 275 271 255 245 241 251 248 248 253 258 262 259 267 259 256 259 262 271 244 230 231 231 226 232 242 233 228 230 231 232 230 232 235 239 240 240 239 237
180 180 203 201 200 201 213 222 229 243 242 235 245 244 225 226 288 283 240 229 264 298 301 303 306 307 306 306 304 300 295 292 294 300 302 299 285 274 270 270 256 251 255 265 280 280 284 278 237 248 251 251 243 251 249 246 244 240 260 268 268 260 246 249 241 264 258 237 233 231 228 229 237 240 229 229 231 232 231 232 234 237 238 238 238
181 190 199 206 202 207 210 215 224 221 261 298 293 310 327 221 247 296 251 237 286 293 294 298 306 309 311 306 305 298 291 294 309 307 295 290 285 285 279 275 284 265 263 262 264 267 280 278 275 259 256 248 250 249 250 249 255 243 231 240 243 245 240 235 237 227 240 252 243 233 232 231 227 235 238 229 229 231 232 232 233 234 236 236 236
187 180 190 197 202 216 223 195 242 286 320 320 325 330 293 314 326 330 332 330 318 297 301 310 304 308 302 298 289 291 296 305 315 294 308 293 285 292 292 303 296 299 288 278 256 265 274 280 279 268 262 264 258 258 258 250 236 241 244 245 248 253 253 251 251 247 244 241 249 248 237 233 228 229 234 237 233 230 231 232 233 233 234 235 234
187 176 190 207 202 203 245 254 320 316 279 247 253 276 295 306 317 351 347 355 327 339 331 310 327 320 299 298 308 305 309 342 112 10 352 338 329 316 314 319 318 310 313 307 274 275 274 277 271 273 273 273 276 273 270 262 253 241 242 251 250 249 252 252 251 248 247 247 250 250 249 239 231 228 226 230 233 232 231 232 233 234 234 234 235
183 186 178 176 173 291 318 291 300 284 232 254 312 345 356 350 330 9 43 13 307 327 331 334 21 353 332 335 324 334 353 27 50 16 7 18 18 30 26 13 17 6 5 347 337 313 301 296 289 293 285 284 283 284 281 278 279 267 258 251 253 252 252 247 245 244 243 245 248 253 255 253 244 233 228 228 230 230 231 231 232 233 235 235 236
177 174 170 162 167 205 239 248 235 195 25 360 23 20 24 15 150 195 334 34 326 321 360 43 333 323 309 336 360 358 335 354 321 8 358 17 36 51 42 34 22 16 8 5 5 352 348 335 316 302 300 296 294 289 284 280 273 265 261 256 254 254 256 256 252 250 249 244 241 239 244 250 254 246 234 230 229 228 229 231 232 232 234 236 237
172 165 159 174 190 209 217 205 206 172 149 347 5 323 336 14 143 128 120 39 25 346 348 16 358 350 6 15 332 67 338 355 337 311 343 6 55 40 33 32 17 1 2 4 0 358 354 345 333 324 308 304 302 297 294 288 281 282 286 289 274 254 253 255 255 253 255 253 249 246 241 241 245 250 249 240 233 231 229 230 231 232 233 235 237
169 175 179 198 204 204 194 188 143 185 157 95 243 229 260 262 170 148 165 134 64 356 345 26 27 16 337 338 349 18 291 294 334 294 334 5 23 20 25 20 11 360 355 350 347 357 353 348 341 322 309 304 295 292 292 292 291 291 289 287 289 291 282 275 271 262 256 252 253 252 249 242 241 246 248 248 241 236 232 230 230 231 233 234 237
173 182 196 184 182 183 168 160 174 186 189 186 209 260 219 213 206 179 177 203 142 45 321 1 27 3 287 248 154 262 317 337 360 328 324 353 323 338 357 359 4 350 349 344 353 350 353 350 346 336 328 315 302 298 299 302 299 300 295 288 284 277 280 282 284 272 261 261 260 256 255 256 254 245 244 247 248 243 239 233 230 230 231 233 235
181 177 170 173 164 161 167 178 181 184 193 155 200 230 216 188 163 175 195 160 156 129 289 294 342 59 28 359 315 353 325 344 325 318 328 323 333 346 327 340 348 346 350 353 350 346 347 349 345 342 341 335 325 316 311 303 305 306 301 302 299 297 295 290 286 281 279 269 262 260 253 245 248 251 244 243 248 247 239 237 235 232 230 230 233
164 162 161 176 169 168 176 165 165 176 196 199 217 230 311 296 141 140 170 178 174 194 243 239 65 7 18 9 6 342 12 320 260 303 282 305 310 313 271 327 339 354 15 357 356 351 340 343 344 345 348 346 344 336 329 322 322 319 317 308 303 301 296 293 292 289 286 279 270 262 254 251 250 250 249 246 244 245 243 235 229 229 232 232 229
154 166 180 180 186 179 174 166 155 172 201 187 223 200 198 139 158 182 190 196 198 194 160 189 192 227 98 38 14 5 343 316 329 332 280 312 290 315 320 334 21 43 4 359 351 348 342 334 337 343 341 343 347 348 345 343 336 330 322 321 314 305 304 308 305 301 295 291 283 271 266 257 252 250 248 250 247 246 247 243 233 223 224 229 232
154 159 176 190 181 165 168 174 175 182 198 191 170 191 199 191 187 189 174 182 210 196 208 203 208 204 188 142 178 298 342 5 315 282 239 227 272 299 312 328 334 319 353 348 347 340 342 341 339 346 350 350 351 352 353 353 348 345 338 337 335 332 328 322 315 309 303 297 290 283 273 266 262 258 255 252 251 248 245 247 245 238 228 226 233
161 171 195 181 174 170 167 176 180 183 190 178 196 191 191 188 175 164 158 165 184 199 221 209 208 204 198 191 208 203 184 200 210 220 245 274 305 297 315 324 300 306 306 331 325 318 326 329 337 343 346 341 345 348 356 349 345 338 336 335 334 332 330 328 324 318 309 299 295 293 287 282 271 262 259 255 252 250 248 249 248 244 240 234 234
172 173 176 168 161 168 168 160 185 193 198 199 199 193 183 163 160 172 167 156 162 176 196 205 211 208 212 206 211 201 207 217 221 209 212 245 246 289 304 319 306 233 283 315 284 288 320 314 299 325 331 327 325 352 352 344 334 334 333 331 330 330 328 325 323 321 316 307 293 286 284 281 279 276 269 263 258 254 250 248 245 245 243 238 236
197 181 197 180 172 167 172 189 201 206 192 181 203 188 169 179 180 193 185 195 196 179 190 223 198 188 214 209 197 191 214 219 210 218 232 240 248 273 291 304 298 310 305 323 313 311 285 274 290 306 311 309 312 352 344 338 331 328 330 324 326 325 322 319 319 318 316 312 305 297 289 283 279 272 267 263 258 257 255 249 245 245 246 244 241
181 196 191 186 187 195 191 198 196 188 189 196 193 192 171 184 193 199 210 216 183 189 208 216 204 229 213 197 211 214 221 205 211 213 225 227 237 243 271 296 288 290 301 303 288 345 306 275 286 275 288 292 305 338 343 328 320 325 326 325 320 316 316 315 315 314 312 311 306 301 295 289 282 274 268 264 257 251 243 246 246 247 246 245 244
186 198 186 182 198 201 207 199 202 202 194 195 193 180 179 175 198 222 236 191 189 189 215 197 219 233 223 219 219 214 211 187 200 218 214 224 228 224 218 283 305 295 297 294 301 223 254 292 287 286 264 304 313 330 328 317 320 321 323 322 313 312 312 312 311 312 311 308 305 301 295 290 284 277 269 264 259 254 246 239 239 243 245 243 242
197 183 190 183 195 203 204 212 213 214 211 206 196 193 182 190 220 221 254 171 182 203 219 197 227 231 233 217 218 243 221 191 202 218 217 218 222 218 215 228 247 281 302 294 320 288 250 276 297 261 268 247 320 330 320 320 312 316 319 313 310 309 310 309 310 309 307 304 303 301 296 290 284 279 271 265 260 256 251 245 241 239 241 241 240
189 187 186 196 200 199 203 216 219 220 230 232 221 218 194 207 224 229 245 229 201 227 219 215 227 215 224 211 218 237 239 204 209 223 221 219 220 219 216 224 210 229 268 272 262 271 280 221 303 292 220 284 325 322 316 308 312 318 314 310 307 305 306 306 306 306 305 305 303 300 297 292 286 279 273 267 261 256 253 249 244 240 239 238 238
187 185 182 197 206 205 202 218 225 220 227 234 227 228 208 218 220 225 230 212 225 244 232 225 243 223 226 227 218 234 244 211 212 215 218 217 217 216 219 217 195 205 217 249 269 216 274 264 227 270 275 304 312 303 307 304 308 314 305 306 307 305 305 304 307 306 303 300 299 297 295 291 286 281 276 270 263 256 252 250 246 240 238 238 237
187 186 189 205 209 213 206 219 222 228 226 229 216 218 203 222 221 228 224 205 218 239 237 217 237 222 226 238 222 233 230 226 223 213 221 219 221 218 219 211 212 213 218 214 265 248 214 268 261 246 273 296 305 299 295 294 302 309 307 303 301 302 308 308 302 300 298 296 295 295 294 291 287 282 277 271 265 258 252 248 246 244 240 238 236
196 191 197 206 206 208 206 208 216 221 227 226 209 205 194 211 211 220 221 196 217 232 244 215 227 217 226 236 237 234 231 225 232 220 218 220 218 206 201 206 218 220 220 223 240 265 203 249 280 290 287 287 285 295 299 297 294 305 301 298 299 306 303 297 295 295 297 296 294 293 293 291 287 284 279 274 268 262 255 249 245 243 242 241 239
192 197 205 210 208 209 209 210 213 217 218 228 211 196 196 210 212 218 214 197 210 234 239 245 216 221 227 235 244 242 227 233 236 234 230 224 213 216 210 202 214 216 217 225 246 271 267 223 258 270 295 308 294 266 295 301 306 304 304 300 303 301 299 295 298 293 295 298 297 294 293 291 288 284 281 276 272 266 259 253 246 242 241 241 241
190 204 209 212 211 209 207 219 220 217 219 225 215 193 199 212 222 190 210 202 211 232 224 247 237 218 222 233 242 245 218 231 239 239 234 226 209 219 215 211 222 221 208 221 240 257 283 262 258 259 269 272 289 298 300 310 306 311 308 305 302 300 296 299 298 296 294 297 297 295 293 292 289 285 281 277 273 268 262 256 250 244 241 240 238
202 206 210 208 209 207 214 222 222 225 222 223 218 203 211 209 214 211 205 200 206 217 219 231 234 219 222 228 240 240 214 227 231 241 232 233 224 224 235 218 234 237 223 218 239 265 278 282 274 275 274 280 279 300 306 297 291 291 295 298 304 303 297 293 294 294 294 294 295 295 294 292 289 287 283 278 274 269 263 257 251 246 242 240 237
204 209 208 209 205 209 215 224 225 228 227 225 220 211 216 216 216 220 209 203 204 215 222 231 228 215 223 229 241 236 226 235 243 238 229 228 224 228 237 241 232 245 238 211 226 247 274 284 280 268 278 294 289 289 290 293 294 293 287 289 289 289 292 294 290 289 293 293 292 291 291 289 286 285 283 280 275 269 264 257 251 246 241 238 236
209 204 210 201 210 211 216 222 227 227 228 225 226 223 222 219 222 222 221 214 211 212 217 224 230 226 226 230 247 236 221 241 251 245 231 229 229 227 238 244 244 246 245 231 233 232 254 270 279 267 266 275 277 286 291 302 304 293 279 279 289 290 291 290 291 285 288 289 287 286 286 286 285 284 282 279 276 271 265 258 251 245 241 237 234
204 207 210 210 209 216 220 224 225 229 229 225 223 227 224 217 216 222 224 218 214 210 216 217 220 223 231 234 240 233 226 230 251 255 243 242 233 234 239 245 245 249 253 249 238 240 252 263 272 284 280 279 292 289 280 290 301 304 300 288 284 280 288 294 290 292 297 298 302 297 291 286 284 282 282 279 276 272 267 261 253 245 240 237 233
203 204 212 217 219 217 226 226 228 229 227 218 219 221 221 219 217 218 215 215 217 220 221 223 225 221 226 234 236 228 228 226 237 245 250 251 241 241 234 241 245 245 255 257 244 254 259 265 273 270 278 275 271 290 292 298 292 280 285 292 296 281 277 288 297 295 297 295 287 279 276 278 281 283 282 281 277 272 267 262 256 247 240 236 232
209 210 211 210 215 211 226 223 228 223 219 213 212 213 214 213 208 212 212 213 221 224 228 228 226 226 227 231 234 228 225 224 223 234 227 248 244 255 240 230 236 245 257 264 269 267 261 266 270 278 282 288 279 265 285 293 296 281 245 267 297 301 296 290 284 297 297 291 292 294 286 277 272 271 269 268 269 268 265 262 256 249 242 235 231
207 214 219 211 212 218 219 216 215 211 202 206 190 192 195 205 204 212 211 216 220 225 230 232 228 229 232 231 232 232 226 230 230 232 233 227 231 248 251 214 235 237 267 272 270 265 264 265 272 279 285 285 281 279 288 290 283 280 295 297 295 290 281 294 292 282 277 282 283 287 287 284 289 288 292 292 286 282 269 255 254 250 242 235 229
208 209 217 217 215 216 212 213 214 204 209 204 206 201 202 200 200 211 214 220 220 220 225 232 238 229 233 228 234 235 237 238 240 240 241 240 234 233 247 226 229 253 260 262 265 263 263 263 276 284 285 286 289 286 285 283 285 286 283 286 294 298 302 300 285 270 285 280 284 286 291 294 293 290 284 284 282 279 281 272 258 243 240 232 229
221 220 218 220 221 217 214 214 215 215 214 213 213 214 216 216 205 199 206 217 216 218 217 219 235 239 231 227 233 241 241 241 241 242 243 243 242 235 239 243 241 240 254 256 258 259 258 261 274 279 281 285 283 283 284 286 285 282 282 289 294 298 301 306 307 301 229 271 295 295 288 283 287 285 282 277 275 274 273 269 264 248 240 236 230
222 221 225 222 219 217 217 220 221 218 220 219 218 224 227 225 220 214 207 212 214 219 219 219 228 235 240 234 227 222 225 225 230 238 240 243 243 245 244 244 243 237 234 241 254 263 259 261 271 277 284 282 288 289 287 286 285 283 285 292 292 291 294 296 296 295 293 304 293 298 291 289 282 277 275 269 266 266 263 265 265 253 242 236 232
204 222 227 218 221 217 217 219 224 223 226 223 221 226 229 229 225 220 220 213 217 223 223 223 224 227 229 232 238 227 227 228 235 235 239 251 249 246 252 259 255 244 238 238 239 243 256 266 270 278 277 281 284 282 279 281 287 287 291 291 292 291 291 291 291 295 296 302 300 295 293 291 281 280 277 271 265 263 263 256 252 251 246 238 232
209 224 222 220 218 214 215 219 224 225 226 225 221 224 229 230 230 219 222 219 224 228 230 228 225 224 220 216 232 249 226 221 223 226 227 232 242 253 250 250 251 252 237 231 234 239 240 246 257 270 275 273 273 276 282 288 289 287 290 288 290 291 292 290 292 292 291 291 287 292 289 283 275 275 275 271 260 256 253 254 254 251 245 239 232
210 217 216 216 218 218 219 218 223 228 230 223 221 224 229 230 234 225 223 220 227 235 236 231 227 222 207 203 215 236 244 228 219 218 225 221 242 256 263 264 257 260 264 257 243 241 242 238 250 260 268 273 272 275 281 285 284 280 280 288 292 290 290 289 285 275 272 259 271 270 283 286 284 279 274 269 264 260 254 251 246 246 243 237 231
218 222 225 219 221 221 221 218 221 233 236 222 221 226 228 231 231 221 213 215 220 236 242 236 225 212 199 193 198 226 236 238 241 231 233 248 254 256 260 266 268 270 265 253 258 263 264 270 272 273 277 282 287 288 289 289 289 289 291 287 283 282 286 286 288 291 283 275 270 275 278 279 279 279 280 273 265 264 257 252 249 242 238 234 231
215 215 220 216 219 225 226 225 228 239 247 228 213 221 224 225 218 219 219 216 223 232 243 238 222 193 171 176 192 245 246 246 248 236 215 189 247 252 254 261 267 270 266 257 232 248 256 260 263 268 272 277 280 279 276 274 273 277 283 285 282 287 293 296 293 294 290 290 279 260 272 279 270 272 276 273 264 262 259 252 249 244 233 230 228
216 219 214 215 217 217 222 227 234 238 245 242 220 218 220 220 206 213 212 220 236 240 248 248 96 71 75 247 223 225 238 247 244 213 182 196 239 246 251 257 266 266 267 272 295 282 250 255 265 270 272 273 273 272 271 271 271 267 267 274 282 290 288 291 292 295 294 284 273 269 272 265 273 272 276 272 268 254 255 253 248 247 239 226 225
222 214 207 214 220 221 217 217 223 228 241 251 238 216 214 208 204 215 215 220 237 250 253 335 61 48 229 240 240 235 239 246 218 207 216 216 237 240 242 247 257 267 270 316 303 307 311 311 301 304 300 291 287 290 293 288 280 277 269 271 280 277 284 289 291 295 295 277 261 258 274 278 280 273 275 280 268 256 235 239 239 238 237 231 220